Weather in Vecpiebalga

Latvia     57°03′59″N   25°48′33″E
temp.,
°C
wind,
m/s
gust,
m/s
humid.,
%
clouds,
%
prec.,
mm/h
press.,
hPa
HPBL,
m
28 september, tue
tue2800:00+5e25940 0.0 103098
03:00+5e24960 0.0 103082
06:00+4e25965 0.0 103088
09:00+7e25865 0.0 1030148
12:00+12ese35595 0.0 1031915
15:00+13se345362 0.0 10301477
18:00+12ese2460100 0.0 1031130
21:00+9e2771100 0.0 1032214
29 september, wed
wed2900:00+9ese3876100 0.0 1033282
03:00+8ese3782100 0.0 1033279
06:00+8ese3785100 0.0 1033290
09:00+8se3884100 0.0 1033317
12:00+10se4769100 0.0 1034652
15:00+12se465599 0.0 10321492
18:00+11se376096 0.0 1032573
21:00+7se4117815 0.0 1032364
30 september, thu
thu3000:00+5se311805 0.0 1032316
03:00+4se311860 0.0 1032272
06:00+4se311910 0.0 1031293
09:00+5se412821 0.0 1031390
12:00+10sse59621 0.0 1030672
15:00+13sse58560 0.0 10291046
18:00+11sse510685 0.0 1029897
21:00+8sse4128041 0.0 1029457
1 october, fri
fri100:00+9sse41180100 0.0 1030440
03:00+9s3883100 0.0 1030379
06:00+8s3688100 0.0 1030286
09:00+8s259293 0.0 1030241
12:00+11s2479100 0.0 1030603
15:00+11s3479100 0.0 1030742
18:00+9sse2588100 0.0 1029249
21:00+9sse2690100 0.0 1029214
2 october, sat
sat200:00+9s269289 0.0 1029229
03:00+6s269887 0.0 1029126
06:00+7sse2794100 0.0 1027195
09:00+8sse3990100 0.0 1027267
12:00+11sse496192 0.0 1026546
15:00+13sse4105798 0.0 1024803
18:00+11sse51162100 0.0 1023716
21:00+10sse5136996 0.0 1024659